Regional Weather Roundup
Issued by NWS

Home | Current Version | Previous Version | Graphics & Text | Print | Product List | Glossary On
Versions: 1 2 3 4 5 6 7 8 9 10 11 12 13 14 15 16 17 18 19 20 21 22 23 24 25 26 27 28 29 30 31 32 33 34 35 36 37 38 39 40 41 42 43 44 45 46 47 48 49 50
000
ASUS45 KSLC 200810
RWRUT

UTAH REGIONAL WEATHER ROUNDUP
NATIONAL WEATHER SERVICE SALT LAKE CITY UT
200 AM MDT MON OCT 20 2014

UTZ001>011-023>025-200900-

NORTHERN UTAH

CITY           SKY/WX    TMP DP  RH WIND       PRES   REMARKS
BRIGHAM CITY   CLEAR     45  37  72 N3        30.05S
HILL AFB       CLEAR     55  32  41 SE20      30.05S
LOGAN          CLEAR     39  33  79 CALM      30.06S
OGDEN          CLEAR     55  33  43 S5        30.03S
PROVO AIRPORT  CLEAR     45  37  76 CALM      30.06S
SALT LAKE CITY CLEAR     51  39  63 SE8       30.02F
VERNAL         CLEAR     46  32  58 W3        30.12F
WENDOVER       CLEAR     48  32  53 W5        30.03S
HEBER CITY     CLEAR     34  32  93 CALM      30.13F
WEST JORDAN    CLEAR     54  41  62 CALM      30.05F

$$

UTZ012>022-026-027-200900-

SOUTHERN/CENTRAL UTAH

CITY           SKY/WX    TMP DP  RH WIND       PRES   REMARKS
BLANDING       PTCLDY    48  38  68 E6        30.24R
BRYCE CANYON   CLEAR     31  28  89 W5        30.23F WCI  26
CEDAR CITY     PTCLDY    45  37  73 CALM      30.08F
DELTA          CLEAR     49  34  54 CALM      30.05S
HANKSVILLE       N/A     46  32  57 W3        30.10S
MILFORD        CLEAR     46  32  58 SW3       30.06R
MOAB/CYNLANDS  CLEAR     55  39  54 NE6       30.06F
PRICE          CLEAR     48  30  49 NE5       30.14R
ST GEORGE      SUNNY     63  34  34 S3        29.97R
KANAB            N/A     52  34  50 NW12      30.11R

$$

REGIONAL REPORTS     COLORADO/ARIZONA

CITY           SKY/WX    TMP DP  RH WIND       PRES   REMARKS
CRAIG, CO      CLEAR     34  30  85 CALM      30.20R
GRAND JUNCTION CLEAR     51  33  50 E8        30.11S
RIFLE          CLEAR     45  36  70 SE3       30.16S
MONTROSE       PTCLDY    48  39  71 S10       30.19R
CORTEZ         CLEAR     42  40  92 E6        30.18F
PAGE, AZ       NOT AVBL
GRAND CANYON   PTCLDY    41  34  76 CALM      30.17S
KINGMAN        CLEAR     59  42  53 CALM      29.97S
FLAGSTAFF      CLEAR     37  33  85 CALM      30.18S

$$

REGIONAL REPORTS    NEVADA/IDAHO/WYOMING

CITY           SKY/WX    TMP DP  RH WIND       PRES   REMARKS
LAS VEGAS, NV  CLEAR     71  37  28 SW7       29.85R
ELY            CLEAR     42  30  62 S13       30.11F
ELKO           CLEAR     48  29  47 E7        30.01R
POCATELLO, ID  CLEAR     39  32  76 N3        30.04S
BURLEY         CLEAR     46  35  65 E5        29.98S
EVANSTON, WY   CLEAR     45  27  49 S7        30.19S
ROCK SPRINGS   CLEAR     44  28  53 CALM      30.18S
KEMMERER       CLEAR     36  28  75 N12       30.21S WCI  27

$$


USA.gov is the U.S. government's official web portal to all federal, state and local government web resources and services.